{"data":{"norad_id":44517,"epoch":"2026-09-20T04:39:47.892384Z","epoch_age_seconds":34157,"freshness":"FRESH","line1":"1 44517U 19057A   26263.19430431  .00000038  00000+0  71174-4 0  9991","line2":"2 44517  99.2085 273.1351 0014686 276.8797  83.0688 13.85961816357038","mean_motion":13.85961816,"eccentricity":0.0014686,"inclination_deg":99.2085,"raan_deg":273.1351,"arg_perigee_deg":276.8797,"mean_anomaly_deg":83.0688,"bstar":7.1174e-5,"rev_number":35703,"period_min":103.89896629014,"perigee_km":932.06521719819,"apogee_km":953.56832261115,"semimajor_km":7320.9537699047,"source":"CELESTRAK","updated_at":"2026-09-20T09:00:14.531003Z"}}